Change the Weather History Date:

Friday, January 17, 2014

  Actual Average (KILM) Record (KILM)
Temperature  
Mean Temperature 44 °F 46 °F  
Max Temperature 58 °F 56 °F 78 °F (2013)
Min Temperature 30 °F 36 °F 11 °F (1977)
Degree Days  
Heating Degree Days 21 19  
Month to date heating degree days 323  
Since 1 July heating degree days 1207  
Cooling Degree Days 0 0  
Month to date cooling degree days 0  
Year to date cooling degree days 0  
Moisture  
Dew Point 32 °F    
Average Humidity 66    
Maximum Humidity 92    
Minimum Humidity 38    
Precipitation  
Precipitation 0.00 in 0.13 in 1.47 in (1919)
Month to date precipitation 2.06  
Year to date precipitation 2.06  
Snow  
Snow 0.00 in 0.10 in 0.20 in (1901)
Month to date snowfall 0.3  
Since 1 July snowfall 1.1  
Snow Depth -    
Sea Level Pressure  
Sea Level Pressure 29.99 in    
Wind  
Wind Speed 5 mph (SSW)    
Max Wind Speed 14 mph    
Max Gust Speed 17 mph    
Visibility 10 miles    
Events      
T = Trace of Precipitation, MM = Missing Value Source: NWS Daily Summary

Daily Weather History Graph

Daily Weather History Graph

Search for Another Location

Airport or City:

Trip Planner

Search our weather history database for the weather conditions in past years. The results will help you decide how hot, cold, wet, or windy it might be!

Date:

Astronomy

Jan. 17, 2014 Rise Set
Actual Time 7:20 AM EST 5:28 PM EST
Civil Twilight 6:53 AM EST 5:56 PM EST
Nautical Twilight 6:22 AM EST 6:26 PM EST
Astronomical Twilight 5:52 AM EST 6:57 PM EST
Moon 7:07 PM EST (1/17) 7:52 AM EST (1/17)
Length of Visible Light 11h 03m
Length of Day
10h 08m
Full, 98% of the Moon is Illuminated
Jan 17
Full
Jan 24
Last Quarter
Jan 30
New
Feb 6
First Quarter
Feb 14
Full

Hourly Weather History & Observations

Time (EST) Temp. Windchill Dew Point Humidity Pressure Visibility Wind Dir Wind Speed Gust Speed Precip Events Conditions
12:15 AM 32.9 °F 29.8 °F 29.5 °F 87% 30.06 in 10.0 mi South 3.5 mph - N/A   Clear
12:35 AM 32.0 °F 28.7 °F 30.0 °F 92% 30.06 in 10.0 mi South 3.5 mph - N/A   Clear
12:55 AM 32.4 °F - 29.7 °F 90% 30.06 in 10.0 mi Calm Calm - N/A   Clear
1:15 AM 32.5 °F - 29.3 °F 88% 30.06 in 10.0 mi Calm Calm - N/A   Clear
1:35 AM 32.2 °F - 28.9 °F 88% 30.06 in 10.0 mi Calm Calm - N/A   Clear
1:55 AM 30.2 °F 26.7 °F 27.9 °F 91% 30.06 in 10.0 mi SSW 3.5 mph - N/A   Clear
2:15 AM 31.8 °F 28.5 °F 29.1 °F 90% 30.07 in 10.0 mi SW 3.5 mph - N/A   Clear
2:35 AM 32.0 °F 28.7 °F 28.6 °F 87% 30.07 in 10.0 mi SW 3.5 mph - N/A   Clear
2:55 AM 32.0 °F 28.7 °F 28.0 °F 85% 30.07 in 10.0 mi SSW 3.5 mph - N/A   Clear
3:15 AM 32.0 °F 28.7 °F 27.5 °F 83% 30.06 in 10.0 mi SSW 3.5 mph - N/A   Clear
3:35 AM 32.0 °F 28.7 °F 27.3 °F 83% 30.06 in 10.0 mi South 3.5 mph - N/A   Clear
3:55 AM 32.0 °F - 27.3 °F 83% 30.06 in 10.0 mi Calm Calm - N/A   Clear
4:15 AM 31.5 °F 28.1 °F 26.4 °F 82% 30.05 in 10.0 mi SSW 3.5 mph - N/A   Clear
4:35 AM 32.0 °F 28.7 °F 26.1 °F 79% 30.04 in 10.0 mi SSW 3.5 mph - N/A   Clear
4:55 AM 32.0 °F 28.7 °F 25.7 °F 78% 30.05 in 10.0 mi SSW 3.5 mph - N/A   Clear
5:15 AM 32.0 °F 28.7 °F 25.7 °F 78% 30.05 in 10.0 mi SSW 3.5 mph - N/A   Clear
5:35 AM 30.9 °F - 25.5 °F 80% 30.05 in 10.0 mi Calm Calm - N/A   Clear
5:55 AM 30.7 °F 27.3 °F 25.5 °F 81% 30.05 in 10.0 mi South 3.5 mph - N/A   Clear
6:15 AM 30.6 °F 27.1 °F 25.7 °F 82% 30.06 in 10.0 mi South 3.5 mph - N/A   Clear
6:35 AM 32.0 °F 27.5 °F 25.9 °F 78% 30.06 in 10.0 mi South 4.6 mph - N/A   Clear
6:55 AM 32.4 °F 29.1 °F 25.7 °F 76% 30.06 in 10.0 mi South 3.5 mph - N/A   Clear
7:15 AM 32.0 °F 27.5 °F 25.5 °F 77% 30.05 in 10.0 mi South 4.6 mph - N/A   Clear
7:35 AM 32.0 °F 27.5 °F 25.2 °F 76% 30.05 in 10.0 mi SSW 4.6 mph - N/A   Clear
7:55 AM 32.7 °F 28.3 °F 25.3 °F 74% 30.06 in 10.0 mi SSW 4.6 mph - N/A   Clear
8:15 AM 34.7 °F 30.6 °F 25.3 °F 69% 30.06 in 10.0 mi SSW 4.6 mph - N/A   Clear
8:35 AM 36.3 °F 30.8 °F 25.2 °F 64% 30.07 in 10.0 mi SSW 6.9 mph - N/A   Clear
8:55 AM 38.3 °F 33.2 °F 25.7 °F 61% 30.07 in 10.0 mi SSW 6.9 mph - N/A   Clear
9:15 AM 40.1 °F 34.7 °F 24.8 °F 54% 30.08 in 10.0 mi SSW 8.1 mph - N/A   Clear
9:35 AM 41.9 °F 37.5 °F 24.4 °F 50% 30.09 in 10.0 mi SW 6.9 mph - N/A   Clear
9:55 AM 43.9 °F 40.5 °F 24.3 °F 46% 30.08 in 10.0 mi SW 5.8 mph - N/A   Clear
10:15 AM 45.9 °F 42.3 °F 23.4 °F 41% 30.07 in 10.0 mi SSW 6.9 mph - N/A   Clear
10:35 AM 48.0 °F - 23.2 °F 38% 30.06 in 10.0 mi South 6.9 mph - N/A   Clear
10:55 AM 49.1 °F - 24.4 °F 38% 30.07 in 10.0 mi SW 9.2 mph - N/A   Clear
11:15 AM 49.8 °F - 26.6 °F 41% 30.06 in 10.0 mi SW 8.1 mph - N/A   Clear
11:35 AM 50.7 °F - 27.5 °F 41% 30.05 in 10.0 mi SW 8.1 mph - N/A   Clear
11:55 AM 52.0 °F - 28.6 °F 41% 30.04 in 10.0 mi SSW 8.1 mph - N/A   Clear
12:15 PM 53.1 °F - 28.6 °F 39% 30.02 in 10.0 mi SSW 9.2 mph - N/A   Clear
12:35 PM 54.3 °F - 29.3 °F 38% 30.00 in 10.0 mi South 9.2 mph - N/A   Clear
12:55 PM 55.6 °F - 30.2 °F 38% 29.98 in 10.0 mi South 8.1 mph - N/A   Clear
1:15 PM 56.1 °F - 30.7 °F 38% 29.96 in 10.0 mi South 10.4 mph 16.1 mph N/A   Clear
1:35 PM 56.5 °F - 31.6 °F 39% 29.95 in 10.0 mi South 9.2 mph - N/A   Clear
1:55 PM 57.2 °F - 32.0 °F 38% 29.95 in 10.0 mi South 9.2 mph 17.3 mph N/A   Clear
2:15 PM 57.9 °F - 32.2 °F 38% 29.94 in 10.0 mi SSW 13.8 mph - N/A   Clear
2:35 PM 57.7 °F - 33.3 °F 40% 29.93 in 10.0 mi SSW 13.8 mph 17.3 mph N/A   Clear
2:55 PM 57.7 °F - 34.5 °F 42% 29.93 in 10.0 mi SW 9.2 mph - N/A   Clear
3:15 PM 58.1 °F - 34.7 °F 41% 29.93 in 10.0 mi South 10.4 mph - N/A   Clear
3:35 PM 58.1 °F - 34.5 °F 41% 29.93 in 10.0 mi SSW 8.1 mph - N/A   Clear
3:55 PM 58.1 °F - 34.7 °F 41% 29.92 in 10.0 mi South 9.2 mph 16.1 mph N/A   Clear
4:15 PM 57.2 °F - 35.2 °F 44% 29.92 in 10.0 mi South 12.7 mph 16.1 mph N/A   Clear
4:35 PM 55.0 °F - 35.4 °F 48% 29.92 in 10.0 mi South 6.9 mph 16.1 mph N/A   Clear
4:55 PM 54.0 °F - 36.1 °F 51% 29.92 in 10.0 mi South 8.1 mph - N/A   Clear
5:15 PM 53.2 °F - 37.0 °F 54% 29.92 in 10.0 mi SSE 6.9 mph - N/A   Clear
5:35 PM 52.2 °F - 37.8 °F 58% 29.91 in 10.0 mi SSE 8.1 mph - N/A   Clear
5:55 PM 51.1 °F - 37.8 °F 60% 29.91 in 10.0 mi South 5.8 mph - N/A   Clear
6:15 PM 50.4 °F - 38.3 °F 63% 29.91 in 10.0 mi South 5.8 mph - N/A   Clear
6:35 PM 50.0 °F - 38.8 °F 66% 29.91 in 10.0 mi SSE 6.9 mph - N/A   Clear
6:55 PM 50.0 °F - 39.7 °F 68% 29.91 in 10.0 mi South 8.1 mph - N/A   Clear
7:15 PM 49.5 °F - 40.5 °F 71% 29.91 in 10.0 mi South 6.9 mph - N/A   Clear
7:35 PM 50.0 °F - 41.5 °F 73% 29.92 in 10.0 mi South 5.8 mph - N/A   Clear
7:55 PM 49.8 °F - 42.1 °F 75% 29.92 in 10.0 mi South 5.8 mph - N/A   Clear
8:15 PM 49.6 °F - 42.3 °F 76% 29.92 in 10.0 mi South 5.8 mph - N/A   Clear
8:35 PM 49.6 °F - 42.6 °F 77% 29.92 in 10.0 mi South 5.8 mph - N/A   Clear
8:55 PM 49.3 °F - 42.4 °F 77% 29.92 in 10.0 mi South 4.6 mph - N/A   Clear
9:15 PM 48.6 °F - 42.1 °F 78% 29.92 in 10.0 mi South 3.5 mph - N/A   Clear
9:35 PM 48.6 °F - 42.4 °F 79% 29.91 in 10.0 mi South 4.6 mph - N/A   Clear
9:55 PM 48.6 °F - 42.3 °F 79% 29.91 in 10.0 mi South 4.6 mph - N/A   Mostly Cloudy
10:15 PM 48.7 °F - 42.3 °F 78% 29.91 in 10.0 mi South 3.5 mph - N/A   Overcast
10:35 PM 48.7 °F - 42.4 °F 79% 29.90 in 10.0 mi South 3.5 mph - N/A   Mostly Cloudy
10:55 PM 48.7 °F - 42.8 °F 80% 29.90 in 10.0 mi SSW 4.6 mph - N/A   Mostly Cloudy
11:15 PM 49.1 °F - 42.8 °F 79% 29.89 in 10.0 mi SSW 5.8 mph - N/A   Overcast
11:35 PM 48.7 °F - 43.0 °F 80% 29.88 in 10.0 mi SSW 6.9 mph - N/A   Scattered Clouds
11:55 PM 49.5 °F - 43.2 °F 79% 29.88 in 10.0 mi WSW 8.1 mph - N/A   Clear